datetime,flow
2005-07-28,855.138833
2005-07-29,749.466917
2005-07-30,699.808958
2005-07-31,694.583854
2005-08-01,680.885417
2005-08-02,653.108406
2005-08-03,652.642458
2005-08-04,731.506438
2005-08-05,
2005-08-06,739.395104
2005-08-07,696.05474
2005-08-08,661.095594
2005-08-09,602.997547
2005-08-10,632.537432
2005-08-11,620.474104
2005-08-12,605.822427
2005-08-13,597.362708
2005-08-14,576.053073
2005-08-15,559.593391
2005-08-16,600.958609
2005-08-17,648.231604
2005-08-18,647.130729
2005-08-19,620.367354
2005-08-20,604.622135
2005-08-21,601.941865
2005-08-22,600.012708
2005-08-23,579.963776
2005-08-24,568.76937
2005-08-25,584.952927
2005-08-26,594.978151
2005-08-27,579.816219
2005-08-28,570.473802
2005-08-29,556.357818
2005-08-30,545.511646
2005-08-31,546.666594
2005-09-01,
2005-09-02,
2005-09-03,
2005-09-04,
2005-09-05,527.122641
2005-09-06,502.697578
2005-09-07,464.46276
2005-09-08,456.597656
2005-09-09,505.438281
2005-09-10,529.894958
2005-09-11,505.73776
2005-09-12,487.867188
2005-09-13,478.248698
2005-09-14,474.639063
2005-09-15,477.038281
2005-09-16,471.250781
2005-09-17,461.354688
2005-09-18,458.329167
2005-09-19,456.396875
2005-09-20,450.871875
2005-09-21,450.203125
2005-09-22,491.347135
2005-09-23,479.783333
2005-09-24,464.470052
2005-09-25,458.956771
2005-09-26,455.665625
2005-09-27,458.763229
2005-09-28,606.314979
2005-09-29,529.478292
2005-09-30,485.467969
2005-10-01,463.536458
2005-10-02,452.009375
2005-10-03,438.603125
2005-10-04,446.281771
2005-10-05,478.360313
2005-10-06,410.613854
2005-10-07,413.434583
2005-10-08,405.661667
2005-10-09,443.853698
2005-10-10,457.180469
2005-10-11,425.570625
2005-10-12,413.396667
2005-10-13,405.225625
2005-10-14,402.988542
2005-10-15,406.590625
2005-10-16,403.80375
2005-10-17,400.675625
2005-10-18,397.490625
2005-10-19,452.193958
2005-10-20,435.9625
2005-10-21,423.590833
2005-10-22,416.86875
2005-10-23,410.723542
2005-10-24,402.855833
2005-10-25,394.343542
2005-10-26,391.428542
2005-10-27,384.437083
2005-10-28,380.791354
2005-10-29,384.819063
2005-10-30,404.115
2005-10-31,392.425833
2005-11-01,367.587604
2005-11-02,348.353438
2005-11-03,365.164375
2005-11-04,378.188125
2005-11-05,400.808333
2005-11-06,389.221875
2005-11-07,385.225313
2005-11-08,380.2725
2005-11-09,374.625938
2005-11-10,374.64375
2005-11-11,379.04625
2005-11-12,388.513542
2005-11-13,384.442708
2005-11-14,400.808333
2005-11-15,366.002188
2005-11-16,341.575313
2005-11-17,370.137188
2005-11-18,365.631875
2005-11-19,370.457813
2005-11-20,351.204688
2005-11-21,359.77625
2005-11-22,354.554688
2005-11-23,350.453438
2005-11-24,350.803125
2005-11-25,346.663125
2005-11-26,354.83625
2005-11-27,349.5725
2005-11-28,337.535795
2005-11-29,
2005-11-30,347.165938
2005-12-01,336.134375
2005-12-02,
2005-12-03,
2005-12-04,
2005-12-05,
2005-12-06,
2005-12-07,
2005-12-08,
2005-12-09,
2005-12-10,733.240469
2005-12-11,697.01599
2005-12-12,668.651875
2005-12-13,691.310208
2005-12-14,638.079063
2005-12-15,568.334375
2005-12-16,657.633635
2005-12-17,680.844635
2005-12-18,676.724688
2005-12-19,658.377813
2005-12-20,686.941458
2005-12-21,675.825
2005-12-22,
2005-12-23,475.366875
2005-12-24,322.79125
2005-12-25,321.813438
2005-12-26,320.682813
2005-12-27,323.665625
2005-12-28,316.718438
2005-12-29,319.537344
2005-12-30,
2005-12-31,
2006-01-01,
2006-01-02,
2006-01-03,322.446719
2006-01-04,313.812656
2006-01-05,304.565
2006-01-06,307.384375
2006-01-07,319.840625
2006-01-08,317.908906
2006-01-09,
2006-01-10,
2006-01-11,320.83625
2006-01-12,349.280625
2006-01-13,314.958438
2006-01-14,346.16625
2006-01-15,343.340313
2006-01-16,335.468864
2006-01-17,
2006-01-18,343.1975
2006-01-19,339.3475
2006-01-20,329.675
2006-01-21,294.394344
2006-01-22,327.385
2006-01-23,296.761458
2006-01-24,325.300979
2006-01-25,351.113229
2006-01-26,342.760625
2006-01-27,324.095
2006-01-28,326.78625
2006-01-29,325.070625
2006-01-30,319.966875
2006-01-31,321.008125
2006-02-01,317.047656
2006-02-02,317.584688
2006-02-03,313.797031
2006-02-04,312.685469
2006-02-05,315.279844
2006-02-06,310.157188
2006-02-07,303.016875
2006-02-08,315.030625
2006-02-09,314.49375
2006-02-10,309.734063
2006-02-11,
2006-02-12,
2006-02-13,652.460625
2006-02-14,643.134375
2006-02-15,495.168333
2006-02-16,311.436875
2006-02-17,300.94375
2006-02-18,311.832188
2006-02-19,305.983125
2006-02-20,304.993125
2006-02-21,303.399844
2006-02-22,298.652188
2006-02-23,296.520469
2006-02-24,302.572813
2006-02-25,305.784375
2006-02-26,304.975
2006-02-27,309.943125
2006-02-28,318.505625
2006-03-01,336.796875
2006-03-02,321.680625
2006-03-03,326.43375
2006-03-04,332.291875
2006-03-05,325.79875
2006-03-06,330.670938
2006-03-07,338.9625
2006-03-08,337.658125
2006-03-09,
2006-03-10,
2006-03-11,
2006-03-12,
2006-03-13,
2006-03-14,304.220313
2006-03-15,322.635156
2006-03-16,305.936406
2006-03-17,317.346875
2006-03-18,314.815781
2006-03-19,315.357188
2006-03-20,317.120625
2006-03-21,309.216094
2006-03-22,311.768438
2006-03-23,311.938594
2006-03-24,312.464531
2006-03-25,318.084063
2006-03-26,328.780625
2006-03-27,316.977188
2006-03-28,323.954063
2006-03-29,343.104375
2006-03-30,352.970313
2006-03-31,334.544375
2006-04-01,350.57
2006-04-02,365.595
2006-04-03,358.899063
2006-04-04,386.339167
2006-04-05,488.241578
2006-04-06,539.213474
2006-04-07,511.809271
2006-04-08,509.480104
2006-04-09,541.554865
2006-04-10,571.404135
2006-04-11,587.210849
2006-04-12,582.125776
2006-04-13,634.459063
2006-04-14,683.865833
2006-04-15,753.071688
2006-04-16,688.015313
2006-04-17,701.977396
2006-04-18,723.494271
2006-04-19,673.524063
2006-04-20,
2006-04-21,
2006-04-22,680.486406
2006-04-23,772.3305
2006-04-24,855.751464
2006-04-25,810.789411
2006-04-26,743.705625
2006-04-27,771.05875
2006-04-28,851.144427
2006-04-29,791.967844
2006-04-30,765.408333
2006-05-01,804.137229
2006-05-02,812.841781
2006-05-03,859.00524
2006-05-04,894.090396
2006-05-05,919.26149
2006-05-06,876.104406
2006-05-07,864.430422
2006-05-08,
2006-05-09,
2006-05-10,729.905469
2006-05-11,698.594219
2006-05-12,690.870104
2006-05-13,732.577188
2006-05-14,840.186609
2006-05-15,931.253938
2006-05-16,1036.15772
2006-05-17,1131.38219
2006-05-18,1203.92135
2006-05-19,1338.36688
2006-05-20,1573.06635
2006-05-21,1954.87646
2006-05-22,2296.49974
2006-05-23,2970.53734
2006-05-24,2565.11302
2006-05-25,2654.94063
2006-05-26,2641.14839
2006-05-27,2676.93427
2006-05-28,2274.37234
2006-05-29,1856.81875
2006-05-30,1525.72906
2006-05-31,1459.17854
2006-06-01,1461.16344
2006-06-02,1604.99656
2006-06-03,1749.64464
2006-06-04,1871.08755
2006-06-05,2013.40417
2006-06-06,2191.7225
2006-06-07,2316.88615
2006-06-08,2485.61021
2006-06-09,2572.05698
2006-06-10,2055.0276
2006-06-11,1992.61031
2006-06-12,1921.17552
2006-06-13,1807.66729
2006-06-14,1758.44906
2006-06-15,1675.33135
2006-06-16,1369.52839
2006-06-17,1203.7824
2006-06-18,1214.06031
2006-06-19,1245.79375
2006-06-20,
2006-06-21,1147.82333
2006-06-22,1078.20796
2006-06-23,1018.82929
2006-06-24,1015.2186
2006-06-25,984.524641
2006-06-26,946.56751
2006-06-27,863.081323
2006-06-28,807.444708
2006-06-29,815.953885
2006-06-30,811.616703
2006-07-01,818.402339
2006-07-02,826.989661
2006-07-03,860.611672
2006-07-04,828.615698
2006-07-05,770.971
2006-07-06,867.896031
2006-07-07,806.490104
2006-07-08,850.174615
2006-07-09,965.362188
2006-07-10,930.635917
2006-07-11,840.657188
2006-07-12,833.307844
2006-07-13,772.197729
2006-07-14,721.125729
2006-07-15,656.4825
2006-07-16,624.795196
2006-07-17,
2006-07-18,
2006-07-19,
2006-07-20,581.403984
2006-07-21,625.737797
2006-07-22,553.544938
2006-07-23,529.254688
2006-07-24,525.842359
2006-07-25,595.15238
2006-07-26,589.227911
2006-07-27,597.411885
2006-07-28,583.606734
2006-07-29,605.74838
2006-07-30,609.026318
2006-07-31,629.600313
2006-08-01,659.493438
2006-08-02,617.123927
2006-08-03,557.562792
2006-08-04,548.587531
2006-08-05,548.688073
2006-08-06,560.849115
2006-08-07,533.157948
2006-08-08,535.255484
2006-08-09,554.743021
2006-08-10,549.372141
2006-08-11,556.828385
2006-08-12,550.922635
2006-08-13,554.541979
2006-08-14,541.705406
2006-08-15,525.097344
2006-08-16,521.49125
2006-08-17,509.56526
2006-08-18,456.577604
2006-08-19,469.2625
2006-08-20,454.670313
2006-08-21,452.578125
2006-08-22,447.6625
2006-08-23,439.557813
2006-08-24,438.2375
2006-08-25,442.95
2006-08-26,472.726875
2006-08-27,541.263458
2006-08-28,
2006-08-29,483.025521
2006-08-30,468.453125
2006-08-31,454.385938
2006-09-01,443.84375
2006-09-02,431.577708
2006-09-03,423.681563
2006-09-04,416.375833
2006-09-05,
2006-09-06,403.329792
2006-09-07,402.950625
2006-09-08,407.766042
2006-09-09,418.664375
2006-09-10,415.444167
2006-09-11,
2006-09-12,
2006-09-13,392.030625
2006-09-14,389.892917
2006-09-15,415.232917
2006-09-16,445.245313
2006-09-17,430.6
2006-09-18,424.109479
2006-09-19,415.273542
2006-09-20,411.254375
2006-09-21,451.229792
2006-09-22,455.002344
2006-09-23,451.227344
2006-09-24,438.826563
2006-09-25,441.304688
2006-09-26,446.76875
2006-09-27,448.190625
2006-09-28,446.545313
2006-09-29,455.973438
2006-09-30,461.198438
2006-10-01,470.467708
2006-10-02,464.371354
2006-10-03,514.491849
2006-10-04,548.402943
2006-10-05,548.426432
2006-10-06,574.067385
2006-10-07,602.975542
2006-10-08,561.587182
2006-10-09,524.660938
2006-10-10,543.538646
2006-10-11,512.223177
2006-10-12,485.359896
2006-10-13,477.470573
2006-10-14,477.816406
2006-10-15,491.387708
2006-10-16,474.986719
2006-10-17,517.204323
2006-10-18,509.187135
2006-10-19,485.343542
2006-10-20,485.38151
2006-10-21,490.071875
2006-10-22,477.319271
2006-10-23,461.311719
2006-10-24,470.643229
2006-10-25,469.596094
2006-10-26,473.646094
2006-10-27,446.017188
2006-10-28,454.680729
2006-10-29,449.53125
2006-10-30,443.303438
2006-10-31,422.694375
2006-11-01,385.150417
2006-11-02,362.674896
2006-11-03,376.549688
2006-11-04,389.363125
2006-11-05,394.613542
2006-11-06,389.416667
2006-11-07,387.693125
2006-11-08,387.175938
2006-11-09,378.625104
2006-11-10,374.5725
2006-11-11,351.274375
2006-11-12,384.773854
2006-11-13,348.466563
2006-11-14,364.347188
2006-11-15,344.108125
2006-11-16,347.491875
2006-11-17,375.9975
2006-11-18,
2006-11-19,357.032813
2006-11-20,357.83875
2006-11-21,355.274063
2006-11-22,353.491563
2006-11-23,352.308438
2006-11-24,349.375
2006-11-25,349.770313
2006-11-26,350.274688
2006-11-27,337.37875
2006-11-28,355.491136
2006-11-29,
2006-11-30,
2006-12-01,267.221034
2006-12-02,
2006-12-03,
2006-12-04,
2006-12-05,
2006-12-06,314.864583
2006-12-07,315.546875
2006-12-08,315.453125
2006-12-09,311.807292
2006-12-10,310.072917
2006-12-11,321.84375
2006-12-12,320.088542
2006-12-13,317.572917
2006-12-14,317.015625
2006-12-15,302.942708
2006-12-16,298.072917
2006-12-17,301.265625
2006-12-18,295.135417
2006-12-19,294.244792
2006-12-20,299.46875
2006-12-21,
2006-12-22,
2006-12-23,
2006-12-24,290.085227
2006-12-25,
2006-12-26,315.208333
2006-12-27,305.864583
2006-12-28,297.546875
2006-12-29,285.3125
2006-12-30,
2006-12-31,
2007-01-01,272.333333
2007-01-02,266.708333
2007-01-03,283.442708
2007-01-04,295.239583
2007-01-05,291.588542
2007-01-06,225.479167
2007-01-07,212.479167
2007-01-08,212.973958
2007-01-09,232.104167
2007-01-10,244.0
2007-01-11,238.411458
2007-01-12,217.223958
2007-01-13,210.072917
2007-01-14,
2007-01-15,
2007-01-16,
2007-01-17,
2007-01-18,229.9375
2007-01-19,220.125573
2007-01-20,217.276042
2007-01-21,226.4375
2007-01-22,207.380682
2007-01-23,
2007-01-24,216.265625
2007-01-25,214.510417
2007-01-26,23717.9816
2007-01-27,9826.99177
2007-01-28,5381.63104
2007-01-29,287.645979
2007-01-30,320.436458
2007-01-31,365.838542
2007-02-01,8945.43824
2007-02-02,30071.2625
2007-02-03,28339.2563
2007-02-04,28876.9734
2007-02-05,19037.3688
2007-02-06,269.416667
2007-02-07,270.942708
2007-02-08,272.921875
2007-02-09,271.609375
2007-02-10,272.3125
2007-02-11,272.109375
2007-02-12,271.640625
2007-02-13,265.53125
2007-02-14,266.984375
2007-02-15,262.875
2007-02-16,
2007-02-17,
2007-02-18,261.817708
2007-02-19,273.3125
2007-02-20,274.09375
2007-02-21,266.90625
2007-02-22,268.890625
2007-02-23,272.5625
2007-02-24,268.984375
2007-02-25,254.458333
2007-02-26,275.0
2007-02-27,269.09375
2007-02-28,276.109375
2007-03-01,253.130208
2007-03-02,261.25
2007-03-03,220.626417
2007-03-04,217.020833
2007-03-05,233.963542
2007-03-06,228.630208
2007-03-07,228.09375
2007-03-08,231.333333
2007-03-09,230.078125
2007-03-10,235.796875
2007-03-11,238.347917
2007-03-12,241.630208
2007-03-13,253.630208
2007-03-14,269.671875
2007-03-15,290.182292
2007-03-16,291.833333
2007-03-17,290.822917
2007-03-18,310.921875
2007-03-19,320.583333
2007-03-20,351.208333
2007-03-21,401.09375
2007-03-22,382.661458
2007-03-23,384.228542
2007-03-24,427.770833
2007-03-25,415.744792
2007-03-26,410.416667
2007-03-27,425.536458
2007-03-28,457.0625
2007-03-29,415.62
2007-03-30,400.916667
2007-03-31,390.442708
2007-04-01,373.4725
2007-04-02,383.286458
2007-04-03,392.760417
2007-04-04,396.927083
2007-04-05,435.947917
2007-04-06,436.828125
2007-04-07,442.296875
2007-04-08,450.3125
2007-04-09,448.75
2007-04-10,460.3125
2007-04-11,426.921875
2007-04-12,375.578125
2007-04-13,363.286458
2007-04-14,351.03125
2007-04-15,354.958333
2007-04-16,366.421875
2007-04-17,398.630208
2007-04-18,380.994792
2007-04-19,381.338542
2007-04-20,391.776042
2007-04-21,439.817708
2007-04-22,445.515625
2007-04-23,427.848958
2007-04-24,447.703125
2007-04-25,421.53125
2007-04-26,403.833333
2007-04-27,402.541667
2007-04-28,436.5625
2007-04-29,535.447917
2007-04-30,690.807292
2007-05-01,781.869792
2007-05-02,917.807292
2007-05-03,915.520833
2007-05-04,948.572917
2007-05-05,813.411458
2007-05-06,736.723958
2007-05-07,664.135417
2007-05-08,597.3125
2007-05-09,593.635417
2007-05-10,580.161458
2007-05-11,619.463542
2007-05-12,776.369792
2007-05-13,1012.81771
2007-05-14,1172.23958
2007-05-15,1235.72917
2007-05-16,1325.625
2007-05-17,1317.91667
2007-05-18,1316.66667
2007-05-19,1493.07292
2007-05-20,1623.64583
2007-05-21,1560.9375
2007-05-22,1603.95833
2007-05-23,1279.11458
2007-05-24,1084.50521
2007-05-25,932.338542
2007-05-26,867.333333
2007-05-27,883.796875
2007-05-28,1064.19271
2007-05-29,1278.90625
2007-05-30,1130.98958
2007-05-31,1056.28125
2007-06-01,1164.73958
2007-06-02,1205.52083
2007-06-03,1466.875
2007-06-04,1431.14583
2007-06-05,1581.30208
2007-06-06,1814.27083
2007-06-07,1472.8125
2007-06-08,1304.84375
2007-06-09,1259.53125
2007-06-10,1441.77083
2007-06-11,1652.29167
2007-06-12,2034.16667
2007-06-13,1764.32292
2007-06-14,1679.01042
2007-06-15,1815.0
2007-06-16,1948.4375
2007-06-17,2043.17708
2007-06-18,2058.07292
2007-06-19,1771.77083
2007-06-20,1701.35417
2007-06-21,1657.29167
2007-06-22,1552.65625
2007-06-23,1432.29167
2007-06-24,1436.92708
2007-06-25,1361.04167
2007-06-26,1283.95833
2007-06-27,1269.53125
2007-06-28,1221.61458
2007-06-29,1155.67708
2007-06-30,1124.63542
2007-07-01,1108.28125
2007-07-02,1012.82292
2007-07-03,892.921875
2007-07-04,850.510417
2007-07-05,838.0
2007-07-06,804.541667
2007-07-07,749.010417
2007-07-08,731.505208
2007-07-09,689.848958
2007-07-10,634.09375
2007-07-11,607.653781
2007-07-12,615.630208
2007-07-13,618.385417
2007-07-14,570.109375
2007-07-15,564.739583
2007-07-16,545.15625
2007-07-17,538.625
2007-07-18,542.932292
2007-07-19,580.442708
2007-07-20,605.265625
2007-07-21,653.151042
2007-07-22,715.984375
2007-07-23,668.40625
2007-07-24,648.463542
2007-07-25,650.390625
2007-07-26,733.260417
2007-07-27,684.145833
2007-07-28,760.328125
2007-07-29,710.625
2007-07-30,633.34375
2007-07-31,597.239583
2007-08-01,571.9375
2007-08-02,559.755208
2007-08-03,579.34375
2007-08-04,571.458333
2007-08-05,574.8125
2007-08-06,668.6875
2007-08-07,628.213542
2007-08-08,626.46875
2007-08-09,573.276042
2007-08-10,557.520833
2007-08-11,564.588542
2007-08-12,549.572917
2007-08-13,544.8125
2007-08-14,546.604167
2007-08-15,558.473958
2007-08-16,596.786458
2007-08-17,599.255208
2007-08-18,567.854167
2007-08-19,552.739583
2007-08-20,547.40625
2007-08-21,559.947917
2007-08-22,537.072917
2007-08-23,507.494792
2007-08-24,498.395833
2007-08-25,490.84375
2007-08-26,483.703125
2007-08-27,478.546875
2007-08-28,488.239583
2007-08-29,484.864583
2007-08-30,444.401042
2007-08-31,431.885417
2007-09-01,438.005208
2007-09-02,429.973958
2007-09-03,422.583333
2007-09-04,427.927083
2007-09-05,432.911458
2007-09-06,475.415104
2007-09-07,478.604167
2007-09-08,464.692708
2007-09-09,458.9375
2007-09-10,457.010417
2007-09-11,448.145833
2007-09-12,440.947917
2007-09-13,432.2
2007-09-14,419.020833
2007-09-15,421.770833
2007-09-16,427.614583
2007-09-17,638.005208
2007-09-18,695.614583
2007-09-19,580.885417
2007-09-20,538.322917
2007-09-21,450.734375
2007-09-22,418.098958
2007-09-23,445.401042
2007-09-24,572.317708
2007-09-25,515.833333
2007-09-26,480.651042
2007-09-27,430.786458
2007-09-28,402.291667
2007-09-29,399.072917
2007-09-30,412.822917
2007-10-01,417.817708
2007-10-02,457.078125
2007-10-03,439.916667
2007-10-04,416.020833
2007-10-05,411.485417
2007-10-06,
2007-10-07,
2007-10-08,
2007-10-09,
2007-10-10,
2007-10-11,363.390625
2007-10-12,362.296875
2007-10-13,367.427083
2007-10-14,390.010417
2007-10-15,387.755208
2007-10-16,376.130208
2007-10-17,400.291667
2007-10-18,395.682292
2007-10-19,389.067708
2007-10-20,397.21875
2007-10-21,405.9375
2007-10-22,379.489583
2007-10-23,367.5625
2007-10-24,374.28125
2007-10-25,392.145833
2007-10-26,399.21875
2007-10-27,394.744792
2007-10-28,389.322917
2007-10-29,383.614583
2007-10-30,382.072917
2007-10-31,379.838542
2007-11-01,373.34375
2007-11-02,373.0625
2007-11-03,364.494792
2007-11-04,357.682292
2007-11-05,365.192708
2007-11-06,364.182292
2007-11-07,359.3125
2007-11-08,357.614583
2007-11-09,357.5
2007-11-10,358.145833
2007-11-11,355.880208
2007-11-12,351.21875
2007-11-13,343.630208
2007-11-14,347.46875
2007-11-15,327.015625
2007-11-16,332.270833
2007-11-17,333.104167
2007-11-18,333.541667
2007-11-19,330.510417
2007-11-20,329.140625
2007-11-21,325.588542
2007-11-22,288.859375
2007-11-23,301.041667
2007-11-24,
2007-11-25,302.15625
2007-11-26,327.114896
2007-11-27,314.149375
2007-11-28,329.110938
2007-11-29,308.408958
2007-11-30,336.536458
2007-12-01,384.671875
2007-12-02,347.911458
2007-12-03,326.489583
2007-12-04,344.416667
2007-12-05,343.270833
2007-12-06,341.8125
2007-12-07,357.963542
2007-12-08,349.0625
2007-12-09,333.442708
2007-12-10,311.916667
2007-12-11,335.90625
2007-12-12,310.3125
2007-12-13,295.781927
2007-12-14,305.460227
2007-12-15,
2007-12-16,
2007-12-17,
2007-12-18,312.177083
2007-12-19,317.78125
2007-12-20,305.0625
2007-12-21,314.920455
2007-12-22,
2007-12-23,
2007-12-24,299.338542
2007-12-25,300.136364
2007-12-26,
2007-12-27,
2007-12-28,
2007-12-29,
2007-12-30,
2007-12-31,
2008-01-01,
2008-01-02,
2008-01-03,
2008-01-04,267.010417
2008-01-05,251.354167
2008-01-06,242.072917
2008-01-07,224.710227
2008-01-08,
2008-01-09,240.666667
2008-01-10,
2008-01-11,
2008-01-12,
2008-01-13,
2008-01-14,
2008-01-15,
2008-01-16,
2008-01-17,
2008-01-18,
2008-01-19,
2008-01-20,
2008-01-21,251.989583
2008-01-22,243.162386
2008-01-23,
2008-01-24,
2008-01-25,190.526042
2008-01-26,183.960227
2008-01-27,
2008-01-28,187.698864
2008-01-29,
2008-01-30,
2008-01-31,
2008-02-01,
2008-02-02,1707.47002
2008-02-03,1256.54292
2008-02-04,458.102302
2008-02-05,
2008-02-06,
2008-02-07,
2008-02-08,508.24824
2008-02-09,1012.56281
2008-02-10,568.738802
2008-02-11,537.280781
2008-02-12,10474.9221
2008-02-13,
2008-02-14,
2008-02-15,7547.17917
2008-02-16,
2008-02-17,7291.57385
2008-02-18,
2008-02-19,
2008-02-20,1482.43089
2008-02-21,819.113552
2008-02-22,463.361135
2008-02-23,328.515625
2008-02-24,328.797188
2008-02-25,338.739688
2008-02-26,
2008-02-27,330.169659
2008-02-28,
2008-02-29,
2008-03-01,
2008-03-02,
2008-03-03,
2008-03-04,327.528409
2008-03-05,
2008-03-06,
2008-03-07,
2008-03-08,327.901042
2008-03-09,326.53875
2008-03-10,323.921875
2008-03-11,317.885417
2008-03-12,327.307292
2008-03-13,327.786458
2008-03-14,333.958333
2008-03-15,325.822917
2008-03-16,325.260417
2008-03-17,327.942708
2008-03-18,324.359375
2008-03-19,324.375
2008-03-20,331.453125
2008-03-21,331.645833
2008-03-22,329.322917
2008-03-23,323.171875
2008-03-24,335.677083
2008-03-25,347.520833
2008-03-26,357.130208
2008-03-27,379.822917
2008-03-28,368.984375
2008-03-29,375.609375
2008-03-30,397.979167
2008-03-31,428.472826
2008-04-01,
2008-04-02,369.104167
2008-04-03,439.223958
2008-04-04,422.6875
2008-04-05,430.71875
2008-04-06,436.864583
2008-04-07,439.770833
2008-04-08,427.84375
2008-04-09,434.895833
2008-04-10,440.661458
2008-04-11,422.260417
2008-04-12,414.385417
2008-04-13,431.791667
2008-04-14,472.828125
2008-04-15,549.255208
2008-04-16,593.661458
2008-04-17,534.973958
2008-04-18,523.067708
2008-04-19,580.65625
2008-04-20,652.036458
2008-04-21,669.270833
2008-04-22,716.864583
2008-04-23,849.177083
2008-04-24,926.765625
2008-04-25,884.447917
2008-04-26,839.96875
2008-04-27,818.671875
2008-04-28,853.703125
2008-04-29,902.802083
2008-04-30,980.671875
2008-05-01,1036.98958
2008-05-02,911.140625
2008-05-03,842.151042
2008-05-04,826.125
2008-05-05,833.776042
2008-05-06,939.171875
2008-05-07,1033.39583
2008-05-08,1274.32292
2008-05-09,1149.84375
2008-05-10,1252.39583
2008-05-11,1111.19792
2008-05-12,1113.125
2008-05-13,1171.66667
2008-05-14,1075.83333
2008-05-15,1038.59375
2008-05-16,1004.53125
2008-05-17,1062.03125
2008-05-18,1278.33333
2008-05-19,1578.69792
2008-05-20,1938.33333
2008-05-21,2331.82292
2008-05-22,2456.77083
2008-05-23,1881.19792
2008-05-24,1626.82292
2008-05-25,1530.20833
2008-05-26,1571.40625
2008-05-27,1634.27083
2008-05-28,1799.42708
2008-05-29,1983.02083
2008-05-30,2133.125
2008-05-31,2220.98958
2008-06-01,2453.85417
2008-06-02,2906.04167
2008-06-03,3257.03125
2008-06-04,3175.20833
2008-06-05,2814.11458
2008-06-06,2599.375
2008-06-07,2672.13542
2008-06-08,3085.10417
2008-06-09,2789.73958
2008-06-10,2706.97917
2008-06-11,2993.85417
2008-06-12,2566.51042
2008-06-13,2173.17708
2008-06-14,2193.33333
2008-06-15,2559.32292
2008-06-16,3090.98958
2008-06-17,3534.0625
2008-06-18,3493.54167
2008-06-19,4214.42708
2008-06-20,4215.98958
2008-06-21,4025.88542
2008-06-22,3877.65625
2008-06-23,3465.41667
2008-06-24,3534.89583
2008-06-25,3638.75
2008-06-26,4129.84374
2008-06-27,
2008-06-28,
2008-06-29,
2008-06-30,
2008-07-01,
2008-07-02,
2008-07-03,2943.69792
2008-07-04,2776.61458
2008-07-05,2763.54167
2008-07-06,2644.94792
2008-07-07,2790.36458
2008-07-08,2720.625
2008-07-09,2713.02083
2008-07-10,2640.72917
2008-07-11,2556.35417
2008-07-12,2391.30209
2008-07-13,2312.55209
2008-07-14,2209.84375
2008-07-15,2102.13542
2008-07-16,1862.60418
2008-07-17,1527.51043
2008-07-18,1453.4375
2008-07-19,1360.41667
2008-07-20,1312.34375
2008-07-21,1330.10416
2008-07-22,1416.09375
2008-07-23,1400.0
2008-07-24,1485.46875
2008-07-25,1296.14583
2008-07-26,1248.95833
2008-07-27,1188.54167
2008-07-28,1283.22917
2008-07-29,1145.88542
2008-07-30,1049.1875
2008-07-31,981.859376
2008-08-01,597.046885
2008-08-02,271.625
2008-08-03,271.703125
2008-08-04,
2008-08-05,
2008-08-06,
2008-08-07,907.703124
2008-08-08,1016.40104
2008-08-09,937.536459
2008-08-10,930.276041
2008-08-11,882.317711
2008-08-12,790.802084
2008-08-13,739.385417
2008-08-14,738.604166
2008-08-15,764.5
2008-08-16,792.15625
2008-08-17,771.958334
2008-08-18,733.635417
2008-08-19,704.84375
2008-08-20,688.666667
2008-08-21,672.177084
2008-08-22,651.8125
2008-08-23,635.583333
2008-08-24,628.34375
2008-08-25,623.423913
2008-08-26,
2008-08-27,
2008-08-28,604.260417
2008-08-29,594.520833
2008-08-30,584.755208
2008-08-31,587.619792
2008-09-01,642.151042
2008-09-02,642.802083
2008-09-03,626.223958
2008-09-04,612.020833
2008-09-05,606.682292
2008-09-06,596.890625
2008-09-07,590.09375
2008-09-08,568.391305
2008-09-09,553.807292
2008-09-10,554.729167
2008-09-11,549.645833
2008-09-12,573.848958
2008-09-13,570.484375
2008-09-14,558.463542
2008-09-15,549.838542
2008-09-16,546.504348
2008-09-17,543.211957
2008-09-18,541.956522
2008-09-19,538.6875
2008-09-20,536.723959
2008-09-21,540.729167
2008-09-22,544.729167
2008-09-23,534.038044
2008-09-24,527.211957
2008-09-25,518.31087
2008-09-26,469.880208
2008-09-27,451.020833
2008-09-28,449.625
2008-09-29,442.666667
2008-09-30,438.521739
2008-10-01,